SQ7KHZ-10 Weather Reports


time (UTC)temp
C
wind
direction
speed
KPH
gust
KPH
rain 1hr
cm
rain 24hr
cm
rain mn
cm
humidity
%
barometer
mb
20260506224143 15 88 0.0 0.0 0.03 0.10 0.00 90 1006.0
20260506222136 13 15 6.4 6.4 0.00 0.08 0.00 93 1006.1
20260506220128 14 157 6.4 6.4 0.08 0.08 0.00 90 1005.8
20260506214107 13 138 0.0 0.0 0.08 0.08 0.00 93 1005.9
20260506212103 15 87 6.4 6.4 0.03 0.03 0.00 85 1005.8
20260506210057 16 135 3.2 3.2 0.00 0.00 0.00 73 1006.1
20260506204013 16 178 0.0 0.0 0.00 0.00 0.00 71 1005.9
20260506202008 16 70 0.0 0.0 0.00 0.00 0.00 73 1005.9
20260506200006 16 100 0.0 0.0 0.00 0.00 0.00 71 1005.9
20260506193954 15 152 0.0 0.0 0.00 0.00 0.00 74 1005.8
20260506191943 16 141 0.0 0.0 0.00 0.00 0.00 71 1005.6
20260506185919 16 179 0.0 0.0 0.00 0.00 0.00 70 1005.6
20260506183906 17 123 0.0 0.0 0.00 0.00 0.00 73 1005.4
20260506181854 18 168 0.0 0.0 0.00 0.00 0.00 65 1005.2
20260506175843 19 125 0.0 0.0 0.00 0.00 0.00 64 1005.2
20260506173819 20 273 0.0 0.0 0.00 0.00 0.00 61 1005.1
20260506171806 21 272 0.0 0.0 0.00 0.00 0.00 57 1005.1
20260506165807 22 136 0.0 0.0 0.00 0.00 0.00 53 1005.1
20260506163755 22 161 0.0 0.0 0.00 0.00 0.00 49 1005.1
20260506161754 22 248 0.0 0.0 0.00 0.00 0.00 47 1005.2
20260506155752 22 119 0.0 0.0 0.00 0.00 0.00 50 1005.2
20260506153747 23 119 3.2 3.2 0.00 0.00 0.00 47 1005.2
20260506151740 23 182 3.2 3.2 0.00 0.00 0.00 46 1005.3
20260506145731 23 124 0.0 0.0 0.00 0.00 0.00 47 1005.4
20260506143730 23 224 8.0 8.0 0.00 0.00 0.00 45 1005.3
20260506141718 24 235 3.2 3.2 0.00 0.00 0.00 46 1005.4
20260506135711 23 161 4.8 4.8 0.00 0.00 0.00 45 1005.5
20260506133710 24 157 9.7 12.9 0.00 0.00 0.00 44 1005.4
20260506131702 25 115 3.2 3.2 0.00 0.00 0.00 43 1005.5
20260506125652 24 125 8.0 8.0 0.00 0.00 0.00 46 1005.4
20260506123641 23 201 4.8 4.8 0.00 0.00 0.00 50 1005.6
20260506121629 23 355 9.7 11.3 0.00 0.00 0.00 48 1005.5
20260506115624 22 287 0.0 0.0 0.00 0.00 0.00 52 1005.8
20260506113614 22 160 0.0 0.0 0.00 0.00 0.00 51 1005.7
20260506111605 22 153 8.0 9.7 0.00 0.00 0.00 54 1005.9
20260506105543 21 125 6.4 6.4 0.00 0.00 0.00 56 1005.8
20260506103543 22 19 3.2 3.2 0.00 0.00 0.00 54 1005.7
20260506101532 22 115 6.4 6.4 0.00 0.00 0.00 54 1005.7
20260506095523 22 150 6.4 8.0 0.00 0.00 0.00 54 1005.7
20260506093501 21 274 0.0 0.0 0.00 0.00 0.00 54 1005.6
20260506091452 22 271 3.2 3.2 0.00 0.00 0.00 56 1005.6
20260506085444 21 101 3.2 3.2 0.00 0.00 0.00 55 1005.6
20260506083434 20 204 6.4 6.4 0.00 0.00 0.00 58 1005.6
20260506081423 20 225 6.4 6.4 0.00 0.00 0.00 59 1005.6
20260506073412 19 230 6.4 6.4 0.00 0.00 0.00 59 1005.4
20260506071403 18 276 3.2 3.2 0.00 0.00 0.00 60 1005.3
20260506061344 16 135 3.2 3.2 0.00 0.00 0.00 65 1005.2
20260506051329 13 108 3.2 3.2 0.00 0.00 0.00 74 1005.4
20260506043327 10 113 0.0 0.0 0.00 0.00 0.00 81 1005.4
20260506041314 9 113 0.0 0.0 0.00 0.00 0.00 80 1005.3
20260506035314 9 113 0.0 0.0 0.00 0.00 0.00 82 1005.3
20260506033314 8 102 0.0 0.0 0.00 0.00 0.00 79 1005.0
20260506031302 9 93 0.0 0.0 0.00 0.00 0.00 78 1005.2
20260506025305 10 11 0.0 0.0 0.00 0.00 0.00 76 1005.3
20260506023250 10 217 0.0 0.0 0.00 0.00 0.00 70 1005.4
20260506021237 10 162 0.0 0.0 0.00 0.00 0.00 71 1005.4
20260506015237 11 131 0.0 0.0 0.00 0.00 0.00 70 1005.5
20260506013226 11 135 0.0 0.0 0.00 0.00 0.00 66 1005.5
20260506011226 11 151 0.0 0.0 0.00 0.00 0.00 70 1005.6
20260506005213 11 90 0.0 0.0 0.00 0.00 0.00 69 1005.7
20260506003202 11 17 0.0 0.0 0.00 0.00 0.00 67 1005.6
20260506001201 11 46 0.0 0.0 0.00 0.00 0.00 71 1005.7
20260505235159 11 0 0.0 0.0 0.00 0.00 0.00 69 1005.7
20260505233146 11 125 0.0 0.0 0.00 0.00 0.00 65 1005.8
20260505231146 12 112 0.0 0.0 0.00 0.00 0.00 60 1005.8
20260505225134 12 145 0.0 0.0 0.00 0.00 0.00 59 1005.8